KH2PM Weather Reports


time (UTC)temp
C
wind
direction
speed
KPH
gust
KPH
rain 1hr
cm
rain 24hr
cm
rain mn
cm
humidity
%
barometer
mb
20260906113004 23 43 3.2 8.0 0.00 0.08 0.00 94 1011.8
20260906112504 23 57 3.2 8.0 0.00 0.08 0.00 94 1011.7
20260906112003 23 63 1.6 4.8 0.00 0.08 0.00 95 1011.7
20260906111504 23 81 1.6 4.8 0.00 0.08 0.00 95 1011.6
20260906111004 23 357 3.2 9.7 0.00 0.08 0.00 95 1011.6
20260906110504 23 23 4.8 8.0 0.00 0.08 0.00 95 1011.4
20260906110004 23 40 0.0 4.8 0.00 0.08 0.00 95 1011.4
20260906105504 23 16 1.6 4.8 0.00 0.08 0.00 95 1011.3
20260906104504 23 0 3.2 4.8 0.00 0.08 0.00 95 1011.3
20260906104004 23 358 1.6 4.8 0.00 0.08 0.00 95 1011.2
20260906103503 23 63 3.2 4.8 0.00 0.08 0.00 95 1011.1
20260906103003 23 63 1.6 4.8 0.00 0.08 0.00 95 1011.2
20260906102504 23 355 0.0 0.0 0.00 0.08 0.00 95 1011.1
20260906102004 23 355 0.0 3.2 0.00 0.08 0.00 95 1011.2
20260906101503 23 343 1.6 3.2 0.00 0.08 0.00 96 1011.2
20260906100504 23 49 0.0 0.0 0.00 0.08 0.00 96 1011.0
20260906100004 23 49 0.0 1.6 0.00 0.08 0.00 96 1010.9
20260906095504 23 49 0.0 1.6 0.00 0.08 0.00 96 1010.8
20260906095003 23 49 0.0 1.6 0.00 0.08 0.00 96 1010.9
20260906094504 23 49 0.0 0.0 0.00 0.08 0.00 96 1010.7
20260906094003 22 49 0.0 0.0 0.00 0.08 0.00 96 1010.7
20260906093503 22 49 0.0 0.0 0.00 0.08 0.00 96 1010.7
20260906091504 22 36 0.0 0.0 0.00 0.08 0.00 96 1010.5
20260906091010 22 36 0.0 0.0 0.00 0.08 0.00 96 1010.4
20260906081004 21 20 0.0 0.0 0.00 0.08 0.00 95 1009.9
20260906080504 21 20 0.0 0.0 0.00 0.08 0.00 95 1009.8
20260906080004 21 20 0.0 0.0 0.00 0.08 0.00 94 1009.7
20260906073504 21 20 0.0 0.0 0.00 0.08 0.00 95 1009.6
20260906071504 21 20 0.0 0.0 0.00 0.08 0.00 95 1009.7
20260906071004 21 13 0.0 0.0 0.00 0.08 0.00 94 1009.7
20260906070503 21 13 0.0 0.0 0.00 0.08 0.00 94 1009.7
20260906065004 21 13 0.0 0.0 0.00 0.08 0.00 94 1009.8
20260906064504 21 13 0.0 0.0 0.00 0.08 0.00 94 1009.9
20260906064004 22 13 0.0 0.0 0.00 0.08 0.00 94 1009.9
20260906063503 22 13 0.0 0.0 0.00 0.08 0.00 94 1009.9
20260906063004 22 13 0.0 0.0 0.00 0.08 0.00 95 1009.8
20260906062504 22 13 0.0 0.0 0.00 0.08 0.00 95 1009.8
20260906062004 22 13 0.0 0.0 0.00 0.08 0.00 95 1009.9
20260906061504 22 13 0.0 0.0 0.00 0.08 0.00 95 1010.0
20260906060504 22 13 0.0 0.0 0.00 0.08 0.00 94 1010.2
20260906060004 21 13 0.0 0.0 0.00 0.08 0.00 94 1010.3
20260906055504 22 13 0.0 0.0 0.00 0.08 0.00 94 1010.4
20260906055004 22 13 0.0 0.0 0.00 0.08 0.00 94 1010.4
20260906054504 22 13 0.0 0.0 0.00 0.08 0.00 94 1010.5
20260906053504 22 13 0.0 0.0 0.00 0.08 0.00 93 1010.5
20260906052504 22 13 0.0 0.0 0.00 0.08 0.00 94 1010.6
20260906052004 22 13 0.0 0.0 0.00 0.08 0.00 94 1010.7
20260906051504 22 13 0.0 0.0 0.00 0.08 0.00 94 1010.7
20260906051003 22 13 0.0 0.0 0.00 0.08 0.00 94 1010.9
20260906050504 22 13 0.0 0.0 0.00 0.08 0.00 94 1010.9
20260906050004 22 13 0.0 0.0 0.00 0.08 0.00 93 1010.9
20260906045507 22 13 0.0 1.6 0.00 0.08 0.00 93 1010.8
20260906044504 22 13 0.0 1.6 0.00 0.08 0.00 94 1010.9
20260906044004 22 13 0.0 0.0 0.00 0.08 0.00 93 1011.1
20260906043503 22 13 0.0 1.6 0.00 0.08 0.00 94 1011.1
20260906043003 22 20 1.6 3.2 0.00 0.08 0.00 94 1011.0
20260906042504 22 191 0.0 0.0 0.00 0.08 0.00 94 1011.1
20260906042004 22 191 0.0 0.0 0.00 0.08 0.00 94 1011.1
20260906041504 22 191 0.0 0.0 0.00 0.08 0.00 94 1011.0
20260906041004 22 191 0.0 0.0 0.00 0.08 0.00 94 1011.1
20260906040503 22 191 0.0 1.6 0.00 0.08 0.00 94 1011.3
20260906040003 22 191 0.0 0.0 0.00 0.08 0.00 94 1011.2
20260906035503 22 191 0.0 0.0 0.00 0.08 0.08 94 1011.1
20260906035004 22 191 0.0 0.0 0.00 0.08 0.08 94 1011.1
20260906034504 22 191 0.0 1.6 0.00 0.08 0.08 93 1011.1
20260906034004 22 196 1.6 3.2 0.00 0.08 0.08 93 1011.1
20260906033504 23 230 0.0 1.6 0.00 0.08 0.08 94 1011.3
20260906033004 23 230 0.0 1.6 0.00 0.08 0.08 94 1011.2
20260906032505 23 176 0.0 3.2 0.00 0.08 0.08 94 1011.3
20260906031004 23 140 1.6 3.2 0.00 0.08 0.08 94 1011.3
20260906030004 23 187 1.6 4.8 0.00 0.08 0.08 94 1011.2
20260906025504 23 145 3.2 4.8 0.00 0.08 0.08 94 1011.2
20260906025004 23 178 3.2 9.7 0.00 0.08 0.08 94 1011.0
20260906024503 23 187 4.8 9.7 0.00 0.08 0.08 92 1011.0
20260906024004 23 331 0.0 1.6 0.00 0.08 0.08 93 1011.0
20260906023504 23 331 0.0 0.0 0.00 0.08 0.08 93 1011.0
20260906023004 23 331 1.6 3.2 0.00 0.08 0.08 94 1011.0
20260906022504 23 306 0.0 0.0 0.00 0.08 0.08 93 1011.0
20260906021504 23 242 0.0 0.0 0.00 0.08 0.08 93 1010.9
20260906020504 23 242 0.0 0.0 0.00 0.08 0.08 92 1010.7
20260906020004 23 242 0.0 0.0 0.00 0.08 0.08 92 1010.6
20260906014504 23 242 0.0 0.0 0.00 0.08 0.08 94 1010.8
20260906014004 23 87 0.0 0.0 0.00 0.08 0.08 93 1010.8
20260906013504 23 87 0.0 0.0 0.00 0.08 0.08 92 1010.8
20260906013004 23 87 0.0 0.0 0.00 0.08 0.08 93 1010.7
20260906012504 23 87 0.0 1.6 0.00 0.08 0.08 93 1010.6
20260906012004 23 87 0.0 1.6 0.00 0.08 0.08 92 1010.5
20260906011503 23 87 0.0 1.6 0.00 0.08 0.08 92 1010.4
20260906011004 23 87 0.0 0.0 0.00 0.08 0.08 93 1010.4
20260906010504 23 87 0.0 1.6 0.00 0.08 0.08 93 1010.4
20260906010003 23 101 0.0 1.6 0.00 0.08 0.08 92 1010.5
20260906005503 23 101 1.6 4.8 0.00 0.08 0.08 92 1010.5
20260906005004 23 78 3.2 3.2 0.00 0.08 0.08 92 1010.4
20260906004504 23 78 0.0 0.0 0.00 0.08 0.08 91 1010.5
20260906004004 23 78 0.0 0.0 0.00 0.08 0.08 91 1010.5
20260906003504 23 78 0.0 1.6 0.00 0.08 0.08 91 1010.5
20260906003003 23 78 1.6 3.2 0.00 0.08 0.08 91 1010.5
20260906002503 24 44 0.0 0.0 0.00 0.08 0.08 90 1010.4
20260906002004 24 44 0.0 0.0 0.00 0.08 0.08 90 1010.2
20260906001504 24 44 0.0 0.0 0.00 0.08 0.08 89 1010.2
20260906001004 24 44 0.0 0.0 0.00 0.08 0.08 89 1010.0
20260906000504 24 44 0.0 0.0 0.00 0.08 0.08 89 1009.9
20260905235503 25 44 0.0 1.6 0.00 0.08 0.08 88 1009.8
20260905235004 25 44 0.0 4.8 0.00 0.08 0.08 88 1009.8
20260905234504 25 37 1.6 3.2 0.00 0.08 0.08 88 1009.7
20260905234004 25 249 0.0 1.6 0.00 0.08 0.08 89 1009.4
20260905233504 25 314 0.0 4.8 0.00 0.08 0.08 89 1009.4
20260905233004 25 345 0.0 3.2 0.00 0.08 0.08 89 1009.3
20260905232503 25 312 1.6 4.8 0.00 0.08 0.08 90 1009.4
20260905232004 25 314 1.6 3.2 0.00 0.08 0.08 89 1009.3
20260905231504 25 5 0.0 4.8 0.00 0.08 0.08 90 1009.3
20260905231004 26 11 1.6 3.2 0.00 0.08 0.08 89 1009.1
20260905230504 26 248 0.0 3.2 0.00 0.08 0.08 90 1008.8
20260905230004 25 333 0.0 3.2 0.00 0.08 0.08 90 1008.7
20260905225003 25 53 0.0 1.6 0.00 0.08 0.08 89 1008.5
20260905224504 25 53 1.6 3.2 0.00 0.08 0.08 89 1008.4
20260905224004 25 327 0.0 3.2 0.00 0.08 0.08 91 1008.4
20260905223504 25 36 1.6 3.2 0.00 0.08 0.08 90 1008.5
20260905223004 25 39 1.6 4.8 0.03 0.08 0.08 90 1008.5
20260905222503 25 297 1.6 4.8 0.03 0.08 0.08 91 1008.7
20260905222004 25 314 3.2 4.8 0.03 0.08 0.08 92 1008.9
20260905221504 25 353 0.0 0.0 0.03 0.08 0.08 91 1009.0
20260905221003 25 306 0.0 0.0 0.03 0.08 0.08 91 1009.0
20260905220503 25 306 0.0 0.0 0.05 0.08 0.08 90 1009.2
20260905220005 25 306 0.0 0.0 0.05 0.08 0.08 91 1009.4
20260905215503 25 270 0.0 0.0 0.05 0.08 0.08 91 1009.3
20260905214503 25 255 0.0 0.0 0.05 0.08 0.08 90 1009.4
20260905213504 25 156 0.0 0.0 0.05 0.08 0.08 88 1009.0
20260905213004 25 120 0.0 0.0 0.03 0.05 0.05 87 1009.0
20260905212504 26 129 0.0 1.6 0.03 0.05 0.05 86 1009.0
20260905212004 26 212 0.0 1.6 0.05 0.05 0.05 86 1009.0
20260905211503 26 212 0.0 4.8 0.05 0.05 0.05 84 1009.3
20260905211004 26 243 0.0 0.0 0.05 0.05 0.05 83 1009.4
20260905210504 26 246 0.0 0.0 0.03 0.03 0.03 84 1009.5
20260905210004 26 257 0.0 1.6 0.03 0.03 0.03 82 1009.4
20260905205503 26 257 1.6 3.2 0.03 0.03 0.03 81 1009.2
20260905205004 27 23 1.6 3.2 0.03 0.03 0.03 79 1009.0
20260905204504 27 37 0.0 4.8 0.03 0.03 0.03 80 1008.9
20260905204004 27 35 0.0 4.8 0.03 0.03 0.03 79 1008.9
20260905203003 28 284 1.6 4.8 0.03 0.03 0.03 75 1008.7
20260905202503 28 50 4.8 8.0 0.03 0.03 0.03 70 1008.8
20260905202004 30 328 3.2 19.3 0.00 0.00 0.00 67 1008.9
20260905201504 30 5 11.3 27.4 0.00 0.00 0.00 61 1009.2
20260905201004 31 346 11.3 27.4 0.00 0.00 0.00 60 1009.3
20260905200003 33 350 9.7 24.1 0.00 0.00 0.00 53 1008.6
20260905195503 35 339 4.8 20.9 0.00 0.00 0.00 53 1008.8
20260905195004 36 310 3.2 4.8 0.00 0.00 0.00 50 1008.5
20260905194504 36 349 3.2 4.8 0.00 0.00 0.00 48 1008.4
20260905194004 37 4 1.6 4.8 0.00 0.00 0.00 48 1008.5
20260905192003 37 249 3.2 4.8 0.00 0.00 0.00 49 1008.3
20260905191503 37 274 3.2 4.8 0.00 0.00 0.00 47 1008.3
20260905191004 37 188 1.6 8.0 0.00 0.00 0.00 47 1008.2
20260905190004 37 304 1.6 4.8 0.00 0.00 0.00 49 1008.2
20260905184504 37 54 1.6 12.9 0.00 0.00 0.00 46 1008.4
20260905184004 37 330 4.8 14.5 0.00 0.00 0.00 47 1008.4
20260905183503 37 54 1.6 3.2 0.00 0.00 0.00 47 1008.6
20260905183004 37 147 3.2 8.0 0.00 0.00 0.00 45 1008.7
20260905182504 37 181 3.2 8.0 0.00 0.00 0.00 48 1008.8
20260905182004 37 266 1.6 4.8 0.00 0.00 0.00 48 1008.9
20260905181504 37 322 3.2 4.8 0.00 0.00 0.00 47 1008.9
20260905181003 37 312 4.8 8.0 0.00 0.00 0.00 45 1009.0
20260905180003 37 208 4.8 12.9 0.00 0.00 0.00 48 1009.2
20260905175503 37 323 3.2 12.9 0.00 0.00 0.00 48 1009.4
20260905175004 36 333 4.8 12.9 0.00 0.00 0.00 48 1009.5
20260905174503 36 28 3.2 11.3 0.00 0.00 0.00 48 1009.6
20260905173504 36 153 3.2 12.9 0.00 0.00 0.00 49 1009.9
20260905173003 36 308 3.2 4.8 0.00 0.00 0.00 50 1010.0
20260905172503 36 264 3.2 8.0 0.00 0.00 0.00 49 1010.0
20260905172004 36 263 3.2 8.0 0.00 0.00 0.00 51 1010.1
20260905171503 36 0 1.6 8.0 0.00 0.00 0.00 51 1010.3
20260905171003 36 59 1.6 9.7 0.00 0.00 0.00 50 1010.4
20260905170503 36 233 3.2 8.0 0.00 0.00 0.00 53 1010.6
20260905170003 36 253 3.2 4.8 0.00 0.00 0.00 52 1010.6
20260905165503 36 139 3.2 8.0 0.00 0.00 0.00 54 1010.6
20260905164504 36 322 3.2 9.7 0.00 0.00 0.00 53 1010.7
20260905163504 35 0 3.2 4.8 0.00 0.00 0.00 54 1010.9
20260905163004 35 325 3.2 4.8 0.00 0.00 0.00 52 1010.8
20260905162503 35 51 3.2 11.3 0.00 0.00 0.00 54 1011.0
20260905162004 35 343 1.6 3.2 0.00 0.00 0.00 55 1011.1
20260905161504 35 357 3.2 8.0 0.00 0.00 0.00 56 1011.2
20260905161004 35 237 3.2 4.8 0.00 0.00 0.00 56 1011.2
20260905160504 35 240 3.2 8.0 0.00 0.00 0.00 58 1011.2
20260905155503 34 322 3.2 8.0 0.00 0.00 0.00 58 1011.4
20260905154504 34 316 3.2 8.0 0.00 0.00 0.00 59 1011.4
20260905154004 34 318 3.2 4.8 0.00 0.00 0.00 60 1011.6
20260905153504 33 229 1.6 4.8 0.00 0.00 0.00 63 1011.6
20260905153004 33 281 3.2 9.7 0.00 0.00 0.00 61 1011.7
20260905152504 33 211 3.2 8.0 0.00 0.00 0.00 62 1011.7
20260905152004 33 283 1.6 4.8 0.00 0.00 0.00 64 1011.7
20260905151504 32 302 1.6 4.8 0.00 0.00 0.00 63 1011.8
20260905151003 32 124 4.8 9.7 0.00 0.00 0.00 63 1011.8
20260905150504 32 344 3.2 4.8 0.00 0.00 0.00 64 1012.0
20260905150004 32 7 4.8 12.9 0.00 0.00 0.00 64 1011.9
20260905145004 32 309 3.2 8.0 0.00 0.00 0.00 66 1011.8
20260905144504 32 336 3.2 4.8 0.00 0.00 0.00 66 1011.9
20260905143504 32 337 3.2 8.0 0.00 0.00 0.00 66 1011.7
20260905143004 31 305 1.6 4.8 0.00 0.00 0.00 69 1011.8
20260905142504 31 217 1.6 4.8 0.00 0.00 0.00 69 1011.8
20260905142004 31 325 4.8 8.0 0.00 0.00 0.00 69 1011.9
20260905141503 31 265 3.2 4.8 0.00 0.00 0.00 71 1011.8
20260905141005 31 288 1.6 4.8 0.00 0.00 0.00 70 1011.7
20260905140504 31 101 3.2 8.0 0.00 0.00 0.00 71 1011.7
20260905140004 31 269 1.6 8.0 0.00 0.00 0.00 71 1011.8
20260905135504 31 206 1.6 8.0 0.00 0.00 0.00 72 1011.7
20260905135004 31 295 1.6 4.8 0.00 0.00 0.00 72 1011.7
20260905134503 30 162 1.6 4.8 0.00 0.00 0.00 73 1011.7
20260905134004 30 199 3.2 4.8 0.00 0.00 0.00 73 1011.8
20260905133503 30 236 1.6 4.8 0.00 0.00 0.00 75 1011.7
20260905133004 30 4 0.0 3.2 0.00 0.00 0.00 75 1011.8
20260905132504 29 265 1.6 4.8 0.00 0.00 0.00 77 1011.8
20260905131503 28 259 1.6 8.0 0.00 0.00 0.00 78 1011.9
20260905131004 28 284 1.6 4.8 0.00 0.00 0.00 78 1012.0
20260905130504 28 144 3.2 9.7 0.00 0.00 0.00 79 1011.9
20260905130004 28 7 1.6 4.8 0.00 0.00 0.00 80 1012.0
20260905125503 27 288 3.2 9.7 0.00 0.00 0.00 81 1012.1
20260905125003 27 303 4.8 9.7 0.00 0.00 0.00 81 1012.0
20260905124503 27 322 3.2 4.8 0.00 0.00 0.00 82 1012.1
20260905124004 27 247 3.2 4.8 0.00 0.00 0.00 82 1012.1
20260905123503 27 9 4.8 11.3 0.00 0.00 0.00 83 1012.1
20260905123003 27 248 1.6 8.0 0.00 0.00 0.00 83 1012.0
20260905122504 27 305 3.2 4.8 0.00 0.00 0.00 84 1011.9
20260905122003 26 295 1.6 4.8 0.00 0.00 0.00 86 1011.9
20260905121503 26 241 1.6 3.2 0.00 0.00 0.00 87 1011.8
20260905121003 26 290 0.0 1.6 0.00 0.00 0.00 88 1011.8
20260905120503 25 256 1.6 3.2 0.00 0.00 0.00 89 1011.8
20260905120004 25 321 1.6 3.2 0.00 0.00 0.00 90 1011.7
20260905115503 25 117 0.0 1.6 0.00 0.00 0.00 90 1011.7
20260905115004 25 117 1.6 3.2 0.00 0.00 0.00 91 1011.6
20260905114504 24 117 0.0 1.6 0.00 0.00 0.00 92 1011.5